www.pogodaiklimat.ru

Погода и климат >> Архив погоды >> Индонезия >> Посо


ПОГОДА в Посо

  • Прогноз погоды в Посо
  • Монитор погоды в Посо

АРХИВ ПОГОДЫ в Посо

Время (UTC), дата Ветер
(напр.,м/с)
 
Видим.   Явления Облачность Т
(С)
Тd
(С)
f
(%)
Тe
(С)
Тes
(С)
Комфортность P
(гПа)
Po
(гПа)
Тmin
(С)
Tmax
(С)
R
(мм)
R24
(мм)
S
(см)
18 9.06 штиль 0 8000 м 6/3 500 м
[Cu med, cong As op Ci fib]
+24.0 +23.0 94 +32 +32 очень
душно
1009.0 1008.2
21 9.06 штиль 0 8000 м 8/3 500 м
[Cu med, cong As op Ci fib]
+23.4 +22.7 96 +33 +33 очень
душно
1008.5 1007.6
00 10.06 штиль 0 10 км 6/3 500 м
[Cu med, cong Ac trans Ci fib]
+26.2 +23.5 85 +36 +39 очень
душно
1009.7 1008.9 +23.4 0.5
03 10.06 СВ 3 10 км 6/3 500 м
[Cu med, cong Ac trans Ci fib]
+31.0 +23.8 66 +43 +51 опасность
перегрева
1009.2 1008.3
06 10.06 СВ 3 8000 м 9/4 480 м
[Cu med, cong As op Ci fib]
+30.2 +26.8 82 +47 +51 опасность
перегрева
1007.0 1006.1
12 10.06 штиль 0 9000 м зарница 9/5 480 м
[Cb calv As op Ci fib]
+27.4 +24.2 83 +38 +38 очень
душно
1009.9 1009.0
15 10.06 штиль 0 9000 м 8/3 500 м
[Cu med, cong As op Ci fib]
+26.2 +24.7 91 +37 +37 очень
душно
1011.1 1010.2
18 10.06 штиль 0 8000 м 8/3 500 м
[Cu med, cong As op Ci fib]
+25.4 +24.4 94 +35 +35 очень
душно
1010.2 1009.3
21 10.06 штиль 0 8000 м 8/3 500 м
[Cu med, cong As op Ci fib]
+24.8 +24.1 96 +34 +34 очень
душно
1010.5 1009.6
00 11.06 З 2 9000 м в посл. час морось 8/3 500 м
[Cu med, cong As op Ci fib]
+27.0 +25.5 92 +40 +42 очень
душно
1011.8 1010.9 +24.6 0.0
03 11.06 С 4 8000 м в посл. час дождь 9/5 480 м
[Cu Sc As op Ci fib]
+29.4 +25.1 78 +43 +46 опасность
перегрева
1012.4 1011.5 0.0
06 11.06 СВ 3 8000 м в посл. час морось 9/4 480 м
[Cu med, cong As op Ci fib]
+29.0 +25.8 83 +43 +48 опасность
перегрева
1009.4 1008.5 0.0
09 11.06 СВ 3 9000 м 6/3 480 м
[Cu med, cong As op Ci fib]
+29.4 +26.0 82 +44 +45 опасность
перегрева
1008.8 1008.0
12 11.06 штиль 0 9000 м 6/4 480 м
[Cu med, cong As op Ci fib]
+27.0 +26.3 96 +41 +41 опасность
перегрева
1009.9 1009.0 +30.4
18 11.06 штиль 0 9000 м 5/3 500 м
[Cu med, cong As op Ci fib]
+24.0 +23.3 96 +32 +32 очень
душно
1010.1 1009.2
21 11.06 штиль 0 9000 м 5/3 500 м
[Cu med, cong As op Ci fib]
+23.4 +22.7 96 +33 +33 очень
душно
1009.9 1009.0
00 12.06 штиль 0 10 км 6/3 500 м
[Cu med, cong As op Ci fib]
+26.4 +25.2 93 +38 +42 очень
душно
1011.9 1011.0 +22.0 0.0
03 12.06 СВ 2 9000 м 6/3 500 м
[Cu med, cong As op Ci fib]
+31.6 +25.7 71 +47 +56 опасность
перегрева
1010.9 1010.0
06 12.06 СВ 6 8000 м 9/5 500 м
[Cu Sc As op Ci fib]
+31.6 +26.3 74 +48 +50 опасность
перегрева
1009.0 1008.1
09 12.06 В 2 5000 м осадки на расстоянии 9/5 480 м
[Cu Sc As op Ci fib]
+29.0 +25.8 83 +43 +44 опасность
перегрева
1009.1 1008.2
12 12.06 штиль 0 9000 м 9/4 480 м
[Cu med, cong As op Ci fib]
+27.0 +25.8 93 +40 +40 очень
душно
1010.5 1009.6 +32.0
15 12.06 штиль 0 9000 м 6/3 500 м
[Cu med, cong As op Ci fib]
+26.2 +25.3 95 +38 +38 очень
душно
1011.3 1010.4
00 13.06 штиль 0 9000 м 5/3 500 м
[Cu med, cong As op Ci fib]
+28.4 +24.0 77 +39 +43 очень
душно
1010.8 1009.9 +23.2
03 13.06 С 4 9000 м 6/4 500 м
[Cu med, cong As op Ci fib]
+31.8 +25.6 70 +47 +53 опасность
перегрева
1010.1 1009.2
06 13.06 С 4 9000 м 6/4 500 м
[Cu med, cong As op Ci fib]
+31.6 +25.1 69 +46 +50 опасность
перегрева
1007.7 1006.8
12 13.06 штиль 0 7000 м осадки на расстоянии 9/5 480 м
[Cu Sc As op Ci fib]
+28.2 +26.7 92 +44 +44 опасность
перегрева
1009.8 1008.9 +32.6
15 13.06 штиль 0 8000 м 9/4 480 м
[Cu med, cong As op Ci fib]
+27.0 +26.1 95 +41 +41 опасность
перегрева
1011.1 1010.3
18 13.06 штиль 0 9000 м 5/3 500 м
[Cu med, cong As op Ci fib]
+25.0 +24.3 96 +35 +35 очень
душно
1008.9 1008.0
21 13.06 штиль 0 9000 м 5/3 500 м
[Cu med, cong As op Ci fib]
+23.8 +23.1 96 +32 +32 очень
душно
1008.9 1008.0
00 14.06 штиль 0 10 км 5/3 500 м
[Cu med, cong As op Ci fib]
+26.0 +24.5 91 +36 +40 очень
душно
1010.7 1009.9 +23.8
06 14.06 С 3 9000 м 6/4 500 м
[Cu med, cong As op Ci fib]
+32.0 +25.2 67 +46 +51 опасность
перегрева
1007.0 1006.1
09 14.06 СВ 2 5000 м слаб. дождь 9/5 480 м
[Cb calv As op Ci fib]
+27.2 +25.7 92 +40 +41 очень
душно
1007.1 1006.2 0.0
12 14.06 штиль 0 3000 м гроза, ливневой дождь 9/5 480 м
[Cb calv As op Ci fib]
+24.8 +24.1 96 +34 +34 очень
душно
1010.4 1009.5 +32.0 0.0
15 14.06 штиль 0 6000 м {гроза, дождь} 8/4 480 м
[Cu med, cong As op Ci fib]
+24.4 +23.1 92 +32 +32 очень
душно
1010.6 1009.7 28
18 14.06 штиль 0 8000 м {дождь} 8/4 480 м
[Cu med, cong As op Ci fib]
+24.4 +23.7 96 +33 +33 очень
душно
1010.3 1009.4 28
21 14.06 штиль 0 8000 м {дождь} 8/4 480 м
[Cu med, cong As op Ci fib]
+24.0 +23.3 96 +32 +32 очень
душно
1010.1 1009.2 0.0
00 15.06 ЮЗ 2 9000 м {дождь} 9/5 480 м
[Cu med, cong As op Ci fib]
+25.2 +24.5 96 +35 +37 очень
душно
1011.5 1010.6 +23.6 62
03 15.06 штиль 0 9000 м 9/5 480 м
[Cu med, cong As op Ci fib]
+27.8 +25.7 88 +41 +48 опасность
перегрева
1011.2 1010.3
06 15.06 штиль 0 5000 м слаб. дождь 9/5 480 м
[Cu med, cong As op Ci fib]
+25.0 +24.3 96 +35 +40 очень
душно
1009.5 1008.6 35
12 15.06 штиль 0 4000 м слаб. дождь 9/4 480 м
[Cu med, cong As op Ci fib]
+24.4 +24.0 98 +34 +34 очень
душно
1012.6 1011.7 +32.0 9
15 15.06 штиль 0 8000 м слаб. дождь 9/4 480 м
[Cu med, cong As op Ci fib]
+23.2 +22.8 98 +32 +32 очень
душно
1013.2 1012.3 4
18 15.06 штиль 0 8000 м {дождь} 9/4 480 м
[Cu med, cong As op Ci fib]
+23.4 +22.7 96 +33 +33 очень
душно
1012.1 1011.2 4
21 15.06 штиль 0 8000 м 9/4 480 м
[Cu med, cong As op Ci fib]
+23.0 +22.3 96 +31 +31 очень
душно
1010.8 1009.9
00 16.06 штиль 0 9000 м 9/3 480 м
[Cu med, cong As op Ci fib]
+24.6 +23.6 94 +33 +36 очень
душно
1011.0 1010.1 +23.2 50
03 16.06 СВ 4 10 км 8/4 480 м
[Cu Sc As op Ci fib]
+30.0 +24.8 74 +43 +48 опасность
перегрева
1011.5 1010.6
06 16.06 СВ 3 9000 м 8/4 480 м
[Cu Sc As op Ci fib]
+30.0 +23.6 69 +41 +45 опасность
перегрева
1009.0 1008.1
09 16.06 штиль 0 3000 м слаб. дождь 9/5 480 м
[Cu med, cong As op Ci fib]
+27.4 +25.0 87 +39 +40 очень
душно
1009.2 1008.3
12 16.06 штиль 0 8000 м 9/5 480 м
[Cu med, cong As op Ci fib]
+25.2 +23.7 91 +34 +34 очень
душно
1010.7 1009.8 +30.4 0.0

 

Местоположение метеостанции Посо (Индонезия): широта -1.38 долгота 120.73 высота над уровнем моря 2 м.

В архиве по умолчанию представлена погода в Посо за последнюю неделю. Архивные данные за месяц целиком и за предыдущие месяцы, начиная с января 2011 года, Вы можете получить, выбрав интересующий диапазон дат из раскрывающегося списка и нажав кнопку "Ввод!".


*Определитесь, кто Вы:
робот инопланетянин человек

Внимание! Время в таблицах - всемирное. Для получения местного времени необходимо прибавить поправку, которая равна 8 ч.

Смотрите также архив погоды в соседних городах и на ближайших метеорологических станциях:

Погода в Палу (Индонезия) (136 км)
Погода в Масамбе (Индонезия) (136 км)
Погода в Маджене (Индонезия) (229 км)
Погода в Лувуке (Индонезия) (234 км)
Погода в Толи-Толи (Индонезия) (267 км)
Погода в Горонтало (Индонезия) (334 км)
Погода в Колаке (Индонезия) (337 км)
Погода в Кендари (Индонезия) (357 км)
Погода в Самаринде (Индонезия) (407 км)
Погода в Баликпапане (Индонезия) (426 км)

Пояснения к столбцам:

Ветер - указаны скорость ветра в м/с - средняя за 10 мин, порывы в срок и между сроками (в фигурных скобках) и направление, откуда дует ветер: С - северный, СВ - северо-восточный, В - восточный, ЮВ - юго-восточный, Ю - южный, ЮЗ - юго-западный, З - западный, СЗ - северо-западный.
Видимость - горизонтальная дальность видимости в метрах или километрах. При видимости от 1 до 10 км при отсутствии осадков обычно наблюдается дымка, при ухудшении видимости до 1 км и менее - туман. В сухую погоду видимость может ухудшаться дымом, пылью или мглою.
Явления - указаны атмосферные явления, наблюдавшиеся в срок или в последний час перед сроком; фигурными скобками обозначены явления, наблюдавшиеся между сроками (за 1-3 часа до срока); квадратными скобками обозначены град или гололедные отложения с указанием их диаметра в мм.
Облачность - указаны через наклонную черту общая и нижняя облачность в баллах и высота нижней границы облаков в метрах; квадратными скобками обозначены формы облаков: Ci - перистые, Cs - перисто-слоистые, Cc - перисто-кучевые, Ac - высококучевые, As - высокослоистые, Sc - слоисто-кучевые, Ns - слоисто-дождевые, Cu - кучевые, Cb - кучево-дождевые. Подробнее классификацию облаков см. в Атласе облаков (PDF).
T - Температура воздуха - температура, измеренная на высоте 2 м над землей.
Td - Температура точки росы - температура, при понижении до которой содержащийся в воздухе водяной пар достигнет насыщения.
f - Относительная влажность воздуха - влажноcть воздуха, измеренная на высоте 2 м над землей.
Te - Эффективная температура - температура, которую ощущает одетый по сезону человек в тени. Характеристика душности погоды. При расчете учитывается влияние влажности воздуха и скорости ветра на теплоощущения человека.
Tes - Эффективная температура на солнце - температура, которую ощущает человек, с поправкой на солнечный нагрев. Характеристика знойности погоды. Зависит от высоты солнца над горизонтом, облачности и скорости ветра. Ночью, в пасмурную погоду, а также при ветре 12 м/с и более поправка равна нулю.
P - Атмосферное давление - приведенное к уровню моря атмосферное давление.
Po - Атмосферное давление - измеренное на уровне метеостанции атмосферное давление.
Tmin - Минимальная температура - минимум температуры воздуха на высоте 2 м над землей.
Tmax - Максимальная температура - максимум температуры воздуха на высоте 2 м над землей.
R - Количество осадков - Количество выпавших осадков за период времени, мм. При наведении курсора мыши на число - период времени, за который выпало указанное количество осадков.
R24 - Количество осадков - Количество выпавших осадков за 24 часа, мм.
S - Снежный покров - Высота снежного покрова, см. При наведении курсора мыши на число - состояние снежного покрова и степень покрытия местности в баллах.